Weather History for Kansas City International, MO

Change the Weather History Date:

Thursday, April 4, 2013

  Actual Average Record
Temperature  
Mean Temperature 49 °F 51 °F  
Max Temperature 63 °F 62 °F 88 °F (1942)
Min Temperature 35 °F 40 °F 20 °F (1920)
Degree Days  
Heating Degree Days 16 14  
Month to date heating degree days 93 59  
Since 1 July heating degree days 4661 4750  
Cooling Degree Days 0 0  
Month to date cooling degree days 0 0  
Year to date cooling degree days 0 3  
Moisture  
Dew Point 24 °F    
Average Humidity 42    
Maximum Humidity 59    
Minimum Humidity 25    
Precipitation  
Precipitation 0.00 in 0.09 in 1.73 in (1947)
Month to date precipitation T 0.38  
Year to date precipitation 4.84 5.28  
Snow  
Snow 0.00 in 0.10 in 3.60 in (1920)
Month to date snowfall 0.0 0.2  
Since 1 July snowfall 31.3 18.4  
Snow Depth 0.00 in    
Sea Level Pressure  
Sea Level Pressure 30.14 in    
Wind  
Wind Speed 4 mph (NE)    
Max Wind Speed 12 mph    
Max Gust Speed 18 mph    
Visibility 10 miles    
Events      
T = Trace of Precipitation, MM = Missing Value Source: NWS Daily Summary

Daily Weather History Graph

Daily Weather History Graph

Search for Another Location

Airport:

Trip Planner

Search our weather history database for the weather conditions in past years. The results will help you decide how hot, cold, wet, or windy it might be!

Date:

Astronomy

Apr. 04, 2013 Rise Set
Actual Time 6:58 AM CDT 7:45 PM CDT
Civil Twilight 6:31 AM CDT 8:13 PM CDT
Nautical Twilight 5:58 AM CDT 8:45 PM CDT
Astronomical Twilight 5:25 AM CDT 9:18 PM CDT
Moon 3:23 AM CDT (4/4) 2:07 PM CDT (4/4)
Length of Visible Light 13h 42m
Length of Day
12h 47m
Waning Crescent, 33% of the Moon is Illuminated
Apr 4
Waning Crescent
Apr 10
New
Apr 18
First Quarter
Apr 25
Full
May 2
Last Quarter

Hourly Weather History & Observations

Time (CDT) Temp. Windchill Dew Point Humidity Pressure Visibility Wind Dir Wind Speed Gust Speed Precip Events Conditions
12:53 AM 41.0 °F 39.0 °F 19.9 °F 43% 30.24 in 10.0 mi ENE 3.5 mph - N/A   Overcast
1:53 AM 39.9 °F 36.7 °F 21.0 °F 47% 30.23 in 10.0 mi ENE 4.6 mph - N/A   Mostly Cloudy
2:53 AM 39.9 °F 37.8 °F 21.9 °F 49% 30.22 in 10.0 mi ENE 3.5 mph - N/A   Overcast
3:53 AM 39.0 °F 35.7 °F 23.0 °F 53% 30.21 in 10.0 mi NE 4.6 mph - N/A   Mostly Cloudy
4:53 AM 39.0 °F - 23.0 °F 53% 30.20 in 10.0 mi Calm Calm - N/A   Scattered Clouds
5:53 AM 36.0 °F 33.3 °F 21.9 °F 57% 30.20 in 10.0 mi NE 3.5 mph - N/A   Mostly Cloudy
6:53 AM 36.0 °F 33.3 °F 23.0 °F 59% 30.20 in 10.0 mi NNE 3.5 mph - N/A   Mostly Cloudy
7:53 AM 36.0 °F 33.3 °F 23.0 °F 59% 30.19 in 10.0 mi NNE 3.5 mph - N/A   Mostly Cloudy
8:53 AM 42.1 °F 40.2 °F 24.1 °F 49% 30.19 in 10.0 mi NE 3.5 mph - N/A   Partly Cloudy
9:53 AM 48.0 °F - 24.1 °F 39% 30.18 in 10.0 mi WNW 6.9 mph - N/A   Partly Cloudy
10:53 AM 50.0 °F - 21.9 °F 33% 30.18 in 10.0 mi NW 9.2 mph - N/A   Partly Cloudy
11:53 AM 53.1 °F - 23.0 °F 31% 30.16 in 10.0 mi Variable 5.8 mph - N/A   Partly Cloudy
12:53 PM 57.0 °F - 25.0 °F 29% 30.14 in 10.0 mi Variable 3.5 mph - N/A   Partly Cloudy
1:53 PM 57.0 °F - 24.1 °F 28% 30.12 in 10.0 mi Variable 4.6 mph - N/A   Clear
2:53 PM 59.0 °F - 24.1 °F 26% 30.10 in 10.0 mi Variable 4.6 mph - N/A   Clear
3:53 PM 61.0 °F - 25.0 °F 25% 30.07 in 10.0 mi NE 5.8 mph - N/A   Clear
4:53 PM 62.1 °F - 26.1 °F 25% 30.06 in 10.0 mi Variable 5.8 mph - N/A   Clear
5:53 PM 63.0 °F - 27.0 °F 26% 30.06 in 10.0 mi WNW 4.6 mph - N/A   Clear
6:53 PM 62.1 °F - 26.1 °F 25% 30.06 in 10.0 mi Calm Calm - N/A   Clear
7:53 PM 57.9 °F - 26.1 °F 30% 30.06 in 10.0 mi Calm Calm - N/A   Partly Cloudy
8:53 PM 55.9 °F - 26.1 °F 32% 30.07 in 10.0 mi Calm Calm - N/A   Partly Cloudy
9:53 PM 51.1 °F - 28.0 °F 41% 30.09 in 10.0 mi SE 3.5 mph - N/A   Partly Cloudy
10:53 PM 52.0 °F - 27.0 °F 38% 30.09 in 10.0 mi South 5.8 mph - N/A   Scattered Clouds
11:53 PM 50.0 °F - 27.0 °F 41% 30.09 in 10.0 mi SSW 6.9 mph - N/A   Clear